Location: Poughquag
(41.6090°N, 73.6820°W)
Time: 03:37:18
(UTC-04:00)

Transit 2A Rocket - Pass Details

Date: 07 June 2020
Orbit: 584 x 919 km, 66.7° (Epoch: 06 July)

Event Time Altitude Azimuth Distance (km) Brightness Sun altitude
Rises 21:32:54 0° 220° (SW) 3,066 8.1 -10.5°
Reaches altitude 10° 21:35:10 10° 224° (SW) 2,202 7.4 -10.8°
Maximum altitude 21:40:09 60° 304° (NW) 887 5.7 -11.5°
Drops below altitude 10° 21:45:41 10° 24° (NNE) 2,440 7.9 -12.2°
Sets 21:48:19 0° 28° (NNE) 3,426 8.6 -12.5°
